Regional Weather Roundup
Issued by NWS Goodland, KS

Home | Current Version | Previous Version | Text Only | Print | Product List | Glossary Off
Versions: 1 2 3 4 5 6 7 8 9 10 11 12 13 14 15 16 17 18 19 20 21 22 23 24 25 26 27 28 29 30 31 32 33 34 35 36 37 38 39 40 41 42 43 44 45 46 47 48 49 50

000
ASUS43 KGLD 261759
RWRGLD

GOODLAND FORECAST AREA HOURLY WEATHER ROUNDUP
NATIONAL WEATHER SERVICE GOODLAND KS
1200 PM MDT THU MAR 26 2015

...OFFICIAL OBSERVATIONS...

CITY           SKY/WX    TMP DP  RH WIND       PRES   REMARKS
GOODLAND KS    CLOUDY    56  26  31 NW16G28   30.14F
HILL CITY KS   MOSUNNY   53  32  44 SW10G18   30.16F
IMPERIAL NEB     N/A     57  25  29 NW24G33   30.10F
MCCOOK NEB     CLOUDY    57  31  37 W16       30.10F
AKRON CO       CLOUDY    52  29  41 NW16G25   30.17F
BURLINGTON CO  MOSUNNY   56  23  27 NW20G28   30.17F
LIMON CO       NOT AVBL
$$

...UNOFFICIAL OBSERVATIONS...

CITY           SKY/WX    TMP DP  RH WIND       PRES   REMARKS
COLBY KS       CLOUDY    57  36  44 W18       30.14F
GOVE KS          N/A     53  32  45 MISG        N/A
LENORA KS        N/A     51  32  48 MISG        N/A
NORTON KS      SUNNY     54  30  40 S15       30.12F
SHARON SPRINGS   N/A     58  31  36 NW10G20     N/A
TRIBUNE KS     SUNNY     59  34  38 W10G24    30.19
KIT CARSON CO    N/A     54  25  32 MISG        N/A
YUMA CO          N/A     51  25  36 NW25        N/A
$$


USA.gov is the U.S. government's official web portal to all federal, state and local government web resources and services.